Year,Month,Day,Hour,Minute,Value (Times are PST for temperature in C)
2010,02,21,00,00,1.30
2010,02,21,00,01,1.30
2010,02,21,00,02,1.30
2010,02,21,00,03,1.30
2010,02,21,00,04,1.30
2010,02,21,00,05,1.20
2010,02,21,00,06,1.20
2010,02,21,00,07,1.20
2010,02,21,00,08,1.20
2010,02,21,00,09,1.20
2010,02,21,00,10,1.20
2010,02,21,00,11,1.20
2010,02,21,00,12,1.20
2010,02,21,00,13,1.20
2010,02,21,00,14,1.20
2010,02,21,00,15,1.20
2010,02,21,00,16,1.20
2010,02,21,00,17,1.20
2010,02,21,00,18,1.20
2010,02,21,00,19,1.20
2010,02,21,00,20,1.20
2010,02,21,00,21,1.20
2010,02,21,00,22,1.20
2010,02,21,00,23,1.20
2010,02,21,00,24,1.20
2010,02,21,00,25,1.20
2010,02,21,00,26,1.20
2010,02,21,00,27,1.20
2010,02,21,00,28,1.20
2010,02,21,00,29,1.20
2010,02,21,00,30,1.20
2010,02,21,00,31,1.20
2010,02,21,00,32,1.10
2010,02,21,00,33,1.10
2010,02,21,00,34,1.10
2010,02,21,00,35,1.10
2010,02,21,00,36,1.10
2010,02,21,00,37,1.10
2010,02,21,00,38,1.10
2010,02,21,00,39,1.10
2010,02,21,00,40,1.10
2010,02,21,00,41,1.10
2010,02,21,00,42,1.10
2010,02,21,00,43,1.10
2010,02,21,00,44,1.00
2010,02,21,00,45,1.00
2010,02,21,00,46,1.00
2010,02,21,00,47,1.00
2010,02,21,00,48,1.00
2010,02,21,00,49,1.00
2010,02,21,00,50,1.00
2010,02,21,00,51,1.00
2010,02,21,00,52,1.00
2010,02,21,00,53,1.00
2010,02,21,00,54,1.00
2010,02,21,00,55,1.00
2010,02,21,00,56,1.00
2010,02,21,00,57,1.00
2010,02,21,00,58,1.00
2010,02,21,00,59,1.00
2010,02,21,01,00,1.00
2010,02,21,01,01,1.00
2010,02,21,01,02,1.00
2010,02,21,01,03,1.00
2010,02,21,01,04,1.00
2010,02,21,01,05,1.00
2010,02,21,01,06,0.90
2010,02,21,01,07,0.90
2010,02,21,01,08,0.90
2010,02,21,01,09,0.90
2010,02,21,01,10,0.90
2010,02,21,01,11,0.80
2010,02,21,01,12,0.80
2010,02,21,01,13,0.80
2010,02,21,01,14,0.80
2010,02,21,01,15,0.80
2010,02,21,01,16,0.80
2010,02,21,01,17,0.80
2010,02,21,01,18,0.80
2010,02,21,01,19,0.80
2010,02,21,01,20,0.80
2010,02,21,01,21,0.80
2010,02,21,01,22,0.80
2010,02,21,01,23,0.80
2010,02,21,01,24,0.80
2010,02,21,01,25,0.80
2010,02,21,01,26,0.80
2010,02,21,01,27,0.80
2010,02,21,01,28,0.80
2010,02,21,01,29,0.80
2010,02,21,01,30,0.80
2010,02,21,01,31,0.80
2010,02,21,01,32,0.80
2010,02,21,01,33,0.80
2010,02,21,01,34,0.80
2010,02,21,01,35,0.80
2010,02,21,01,36,0.80
2010,02,21,01,37,0.80
2010,02,21,01,38,0.80
2010,02,21,01,39,0.80
2010,02,21,01,40,0.80
2010,02,21,01,41,0.80
2010,02,21,01,42,0.80
2010,02,21,01,43,0.80
2010,02,21,01,44,0.80
2010,02,21,01,45,0.80
2010,02,21,01,46,0.80
2010,02,21,01,47,0.90
2010,02,21,01,48,0.90
2010,02,21,01,49,0.90
2010,02,21,01,50,0.90
2010,02,21,01,51,0.90
2010,02,21,01,52,0.90
2010,02,21,01,53,0.90
2010,02,21,01,54,0.90
2010,02,21,01,55,1.00
2010,02,21,01,56,1.00
2010,02,21,01,57,1.00
2010,02,21,01,58,1.00
2010,02,21,01,59,1.00
2010,02,21,02,00,1.00
2010,02,21,02,01,1.00
2010,02,21,02,02,1.00
2010,02,21,02,03,1.00
2010,02,21,02,04,1.00
2010,02,21,02,05,1.00
2010,02,21,02,06,1.00
2010,02,21,02,07,1.00
2010,02,21,02,08,1.00
2010,02,21,02,09,1.00
2010,02,21,02,10,1.00
2010,02,21,02,11,1.00
2010,02,21,02,12,1.00
2010,02,21,02,13,1.00
2010,02,21,02,14,1.00
2010,02,21,02,15,1.10
2010,02,21,02,16,1.10
2010,02,21,02,17,1.10
2010,02,21,02,18,1.20
2010,02,21,02,19,1.20
2010,02,21,02,20,1.20
2010,02,21,02,21,1.20
2010,02,21,02,22,1.20
2010,02,21,02,23,1.20
2010,02,21,02,24,1.20
2010,02,21,02,25,1.20
2010,02,21,02,26,1.20
2010,02,21,02,27,1.20
2010,02,21,02,28,1.20
2010,02,21,02,29,1.20
2010,02,21,02,30,1.20
2010,02,21,02,31,1.10
2010,02,21,02,32,1.10
2010,02,21,02,33,1.10
2010,02,21,02,34,1.10
2010,02,21,02,35,1.10
2010,02,21,02,36,1.10
2010,02,21,02,37,1.10
2010,02,21,02,38,1.10
2010,02,21,02,39,1.10
2010,02,21,02,40,1.10
2010,02,21,02,41,1.10
2010,02,21,02,42,1.10
2010,02,21,02,43,1.10
2010,02,21,02,44,1.00
2010,02,21,02,45,1.00
2010,02,21,02,46,1.00
2010,02,21,02,47,1.00
2010,02,21,02,48,1.00
2010,02,21,02,49,1.00
2010,02,21,02,50,0.90
2010,02,21,02,51,0.90
2010,02,21,02,52,0.80
2010,02,21,02,53,0.80
2010,02,21,02,54,0.80
2010,02,21,02,55,0.70
2010,02,21,02,56,0.60
2010,02,21,02,57,0.60
2010,02,21,02,58,0.50
2010,02,21,02,59,0.50
2010,02,21,03,00,0.50
2010,02,21,03,01,0.50
2010,02,21,03,02,0.50
2010,02,21,03,03,0.50
2010,02,21,03,04,0.50
2010,02,21,03,05,0.50
2010,02,21,03,06,0.50
2010,02,21,03,07,0.50
2010,02,21,03,08,0.50
2010,02,21,03,09,0.50
2010,02,21,03,10,0.50
2010,02,21,03,11,0.50
2010,02,21,03,12,0.50
2010,02,21,03,13,0.50
2010,02,21,03,14,0.50
2010,02,21,03,15,0.50
2010,02,21,03,16,0.50
2010,02,21,03,17,0.50
2010,02,21,03,18,0.50
2010,02,21,03,19,0.50
2010,02,21,03,20,0.50
2010,02,21,03,21,0.50
2010,02,21,03,22,0.50
2010,02,21,03,23,0.50
2010,02,21,03,24,0.50
2010,02,21,03,25,0.50
2010,02,21,03,26,0.50
2010,02,21,03,27,0.40
2010,02,21,03,28,0.50
2010,02,21,03,29,0.50
2010,02,21,03,30,0.50
2010,02,21,03,31,0.50
2010,02,21,03,32,0.50
2010,02,21,03,33,0.50
2010,02,21,03,34,0.50
2010,02,21,03,35,0.50
2010,02,21,03,36,0.50
2010,02,21,03,37,0.50
2010,02,21,03,38,0.50
2010,02,21,03,39,0.40
2010,02,21,03,40,0.40
2010,02,21,03,41,0.40
2010,02,21,03,42,0.40
2010,02,21,03,43,0.40
2010,02,21,03,44,0.40
2010,02,21,03,45,0.40
2010,02,21,03,46,0.40
2010,02,21,03,47,0.40
2010,02,21,03,48,0.40
2010,02,21,03,49,0.40
2010,02,21,03,50,0.40
2010,02,21,03,51,0.40
2010,02,21,03,52,0.40
2010,02,21,03,53,0.40
2010,02,21,03,54,0.40
2010,02,21,03,55,0.40
2010,02,21,03,56,0.40
2010,02,21,03,57,0.40
2010,02,21,03,58,0.40
2010,02,21,03,59,0.40
2010,02,21,04,00,0.40
2010,02,21,04,01,0.40
2010,02,21,04,02,0.40
2010,02,21,04,03,0.40
2010,02,21,04,04,0.40
2010,02,21,04,05,0.40
2010,02,21,04,06,0.40
2010,02,21,04,07,0.40
2010,02,21,04,08,0.40
2010,02,21,04,09,0.40
2010,02,21,04,10,0.40
2010,02,21,04,11,0.40
2010,02,21,04,12,0.40
2010,02,21,04,13,0.40
2010,02,21,04,14,0.30
2010,02,21,04,15,0.30
2010,02,21,04,16,0.30
2010,02,21,04,17,0.30
2010,02,21,04,18,0.20
2010,02,21,04,19,0.20
2010,02,21,04,20,0.20
2010,02,21,04,21,0.20
2010,02,21,04,22,0.10
2010,02,21,04,23,0.10
2010,02,21,04,24,0.10
2010,02,21,04,25,0.10
2010,02,21,04,26,0.10
2010,02,21,04,27,0.10
2010,02,21,04,28,0.10
2010,02,21,04,29,0.10
2010,02,21,04,30,0.10
2010,02,21,04,31,0.10
2010,02,21,04,32,0.10
2010,02,21,04,33,0.10
2010,02,21,04,34,0.10
2010,02,21,04,35,0.10
2010,02,21,04,36,0.10
2010,02,21,04,37,0.10
2010,02,21,04,38,0.10
2010,02,21,04,39,0.10
2010,02,21,04,40,0.10
2010,02,21,04,41,0.10
2010,02,21,04,42,0.10
2010,02,21,04,43,0.10
2010,02,21,04,44,0.10
2010,02,21,04,45,0.10
2010,02,21,04,46,0.10
2010,02,21,04,47,0.10
2010,02,21,04,48,0.10
2010,02,21,04,49,0.20
2010,02,21,04,50,0.20
2010,02,21,04,51,0.20
2010,02,21,04,52,0.20
2010,02,21,04,53,0.20
2010,02,21,04,54,0.20
2010,02,21,04,55,0.20
2010,02,21,04,56,0.20
2010,02,21,04,57,0.20
2010,02,21,04,58,0.20
2010,02,21,04,59,0.20
2010,02,21,05,00,0.20
2010,02,21,05,01,0.20
2010,02,21,05,02,0.10
2010,02,21,05,03,0.10
2010,02,21,05,04,0.10
2010,02,21,05,05,0.10
2010,02,21,05,06,0.10
2010,02,21,05,07,0.10
2010,02,21,05,08,0.10
2010,02,21,05,09,0.10
2010,02,21,05,10,0.10
2010,02,21,05,11,0.10
2010,02,21,05,12,0.00
2010,02,21,05,13,-0.10
2010,02,21,05,14,-0.10
2010,02,21,05,15,-0.10
2010,02,21,05,16,-0.20
2010,02,21,05,17,-0.20
2010,02,21,05,18,-0.20
2010,02,21,05,19,-0.30
2010,02,21,05,20,-0.30
2010,02,21,05,21,-0.40
2010,02,21,05,22,-0.40
2010,02,21,05,23,-0.40
2010,02,21,05,24,-0.40
2010,02,21,05,25,-0.40
2010,02,21,05,26,-0.30
2010,02,21,05,27,-0.30
2010,02,21,05,28,-0.30
2010,02,21,05,29,-0.30
2010,02,21,05,30,-0.30
2010,02,21,05,31,-0.30
2010,02,21,05,32,-0.30
2010,02,21,05,33,-0.30
2010,02,21,05,34,-0.30
2010,02,21,05,35,-0.30
2010,02,21,05,36,-0.30
2010,02,21,05,37,-0.30
2010,02,21,05,38,-0.30
2010,02,21,05,39,-0.30
2010,02,21,05,40,-0.30
2010,02,21,05,41,-0.30
2010,02,21,05,42,-0.30
2010,02,21,05,43,-0.30
2010,02,21,05,44,-0.30
2010,02,21,05,45,-0.30
2010,02,21,05,46,-0.30
2010,02,21,05,47,-0.30
2010,02,21,05,48,-0.30
2010,02,21,05,49,-0.20
2010,02,21,05,50,-0.20
2010,02,21,05,51,-0.20
2010,02,21,05,52,-0.20
2010,02,21,05,53,-0.10
2010,02,21,05,54,-0.10
2010,02,21,05,55,-0.10
2010,02,21,05,56,-0.10
2010,02,21,05,57,-0.10
2010,02,21,05,58,-0.10
2010,02,21,05,59,-0.10
2010,02,21,06,00,-0.10
2010,02,21,06,01,-0.10
2010,02,21,06,02,-0.10
2010,02,21,06,03,-0.10
2010,02,21,06,04,-0.10
2010,02,21,06,05,-0.10
2010,02,21,06,06,-0.20
2010,02,21,06,07,-0.20
2010,02,21,06,08,-0.20
2010,02,21,06,09,-0.20
2010,02,21,06,10,-0.30
2010,02,21,06,11,-0.30
2010,02,21,06,12,-0.30
2010,02,21,06,13,-0.30
2010,02,21,06,14,-0.40
2010,02,21,06,15,-0.40
2010,02,21,06,16,-0.40
2010,02,21,06,17,-0.40
2010,02,21,06,18,-0.40
2010,02,21,06,19,-0.40
2010,02,21,06,20,-0.40
2010,02,21,06,21,-0.40
2010,02,21,06,22,-0.40
2010,02,21,06,23,-0.40
2010,02,21,06,24,-0.40
2010,02,21,06,25,-0.40
2010,02,21,06,26,-0.40
2010,02,21,06,27,-0.40
2010,02,21,06,28,-0.40
2010,02,21,06,29,-0.40
2010,02,21,06,30,-0.40
2010,02,21,06,31,-0.40
2010,02,21,06,32,-0.40
2010,02,21,06,33,-0.40
2010,02,21,06,34,-0.40
2010,02,21,06,35,-0.40
2010,02,21,06,36,-0.40
2010,02,21,06,37,-0.50
2010,02,21,06,38,-0.60
2010,02,21,06,39,-0.60
2010,02,21,06,40,-0.60
2010,02,21,06,41,-0.60
2010,02,21,06,42,-0.60
2010,02,21,06,43,-0.60
2010,02,21,06,44,-0.60
2010,02,21,06,45,-0.60
2010,02,21,06,46,-0.60
2010,02,21,06,47,-0.60
2010,02,21,06,48,-0.60
2010,02,21,06,49,-0.60
2010,02,21,06,50,-0.60
2010,02,21,06,51,-0.60
2010,02,21,06,52,-0.60
2010,02,21,06,53,-0.60
2010,02,21,06,54,-0.60
2010,02,21,06,55,-0.60
2010,02,21,06,56,-0.60
2010,02,21,06,57,-0.60
2010,02,21,06,58,-0.60
2010,02,21,06,59,-0.60
2010,02,21,07,00,-0.60
2010,02,21,07,01,-0.60
2010,02,21,07,02,-0.60
2010,02,21,07,03,-0.40
2010,02,21,07,04,-0.40
2010,02,21,07,05,-0.40
2010,02,21,07,06,-0.40
2010,02,21,07,07,-0.40
2010,02,21,07,08,-0.40
2010,02,21,07,09,-0.40
2010,02,21,07,10,-0.40
2010,02,21,07,11,-0.40
2010,02,21,07,12,-0.40
2010,02,21,07,13,-0.40
2010,02,21,07,14,-0.40
2010,02,21,07,15,-0.40
2010,02,21,07,16,-0.40
2010,02,21,07,17,-0.40
2010,02,21,07,18,-0.40
2010,02,21,07,19,-0.30
2010,02,21,07,20,-0.30
2010,02,21,07,21,-0.30
2010,02,21,07,22,-0.30
2010,02,21,07,23,-0.30
2010,02,21,07,24,-0.40
2010,02,21,07,25,-0.40
2010,02,21,07,26,-0.40
2010,02,21,07,27,-0.40
2010,02,21,07,28,-0.40
2010,02,21,07,29,-0.40
2010,02,21,07,30,-0.40
2010,02,21,07,31,-0.40
2010,02,21,07,32,-0.40
2010,02,21,07,33,-0.40
2010,02,21,07,34,-0.40
2010,02,21,07,35,-0.40
2010,02,21,07,36,-0.40
2010,02,21,07,37,-0.40
2010,02,21,07,38,-0.40
2010,02,21,07,39,-0.40
2010,02,21,07,40,-0.40
2010,02,21,07,41,-0.40
2010,02,21,07,42,-0.40
2010,02,21,07,43,-0.40
2010,02,21,07,44,-0.40
2010,02,21,07,45,-0.40
2010,02,21,07,46,-0.30
2010,02,21,07,47,-0.30
2010,02,21,07,48,-0.30
2010,02,21,07,49,-0.20
2010,02,21,07,50,-0.20
2010,02,21,07,51,-0.10
2010,02,21,07,52,-0.10
2010,02,21,07,53,-0.10
2010,02,21,07,54,-0.10
2010,02,21,07,55,-0.10
2010,02,21,07,56,0.00
2010,02,21,07,57,0.10
2010,02,21,07,58,0.10
2010,02,21,07,59,0.20
2010,02,21,08,00,0.20
2010,02,21,08,01,0.30
2010,02,21,08,02,0.30
2010,02,21,08,03,0.30
2010,02,21,08,04,0.40
2010,02,21,08,05,0.40
2010,02,21,08,06,0.40
2010,02,21,08,07,0.40
2010,02,21,08,08,0.40
2010,02,21,08,09,0.40
2010,02,21,08,10,0.50
2010,02,21,08,11,0.50
2010,02,21,08,12,0.50
2010,02,21,08,13,0.50
2010,02,21,08,14,0.60
2010,02,21,08,15,0.60
2010,02,21,08,16,0.60
2010,02,21,08,17,0.70
2010,02,21,08,18,0.70
2010,02,21,08,19,0.70
2010,02,21,08,20,0.70
2010,02,21,08,21,0.80
2010,02,21,08,22,0.80
2010,02,21,08,23,0.80
2010,02,21,08,24,0.80
2010,02,21,08,25,0.80
2010,02,21,08,26,0.90
2010,02,21,08,27,0.90
2010,02,21,08,28,1.00
2010,02,21,08,29,1.00
2010,02,21,08,30,1.00
2010,02,21,08,31,1.00
2010,02,21,08,32,1.10
2010,02,21,08,33,1.10
2010,02,21,08,34,1.20
2010,02,21,08,35,1.20
2010,02,21,08,36,1.20
2010,02,21,08,37,1.40
2010,02,21,08,38,1.50
2010,02,21,08,39,1.70
2010,02,21,08,40,1.80
2010,02,21,08,41,2.00
2010,02,21,08,42,2.10
2010,02,21,08,43,2.20
2010,02,21,08,44,2.30
2010,02,21,08,45,2.40
2010,02,21,08,46,2.40
2010,02,21,08,47,2.50
2010,02,21,08,48,2.50
2010,02,21,08,49,2.50
2010,02,21,08,50,2.60
2010,02,21,08,51,2.60
2010,02,21,08,52,2.70
2010,02,21,08,53,2.70
2010,02,21,08,54,2.80
2010,02,21,08,55,2.80
2010,02,21,08,56,2.90
2010,02,21,08,57,2.90
2010,02,21,08,58,3.10
2010,02,21,08,59,3.10
2010,02,21,09,00,3.20
2010,02,21,09,01,3.20
2010,02,21,09,02,3.30
2010,02,21,09,03,3.30
2010,02,21,09,04,3.40
2010,02,21,09,05,3.50
2010,02,21,09,06,3.60
2010,02,21,09,07,3.60
2010,02,21,09,08,3.70
2010,02,21,09,09,3.80
2010,02,21,09,10,3.90
2010,02,21,09,11,4.10
2010,02,21,09,12,4.20
2010,02,21,09,13,4.30
2010,02,21,09,14,4.40
2010,02,21,09,15,4.50
2010,02,21,09,16,4.70
2010,02,21,09,17,4.90
2010,02,21,09,18,5.00
2010,02,21,09,19,5.10
2010,02,21,09,20,5.10
2010,02,21,09,21,5.20
2010,02,21,09,22,5.30
2010,02,21,09,23,5.40
2010,02,21,09,24,5.50
2010,02,21,09,25,5.50
2010,02,21,09,26,5.60
2010,02,21,09,27,5.70
2010,02,21,09,28,5.80
2010,02,21,09,29,5.90
2010,02,21,09,30,6.00
2010,02,21,09,31,6.20
2010,02,21,09,32,6.30
2010,02,21,09,33,6.40
2010,02,21,09,34,6.50
2010,02,21,09,35,6.60
2010,02,21,09,36,6.60
2010,02,21,09,37,6.70
2010,02,21,09,38,6.70
2010,02,21,09,39,6.80
2010,02,21,09,40,6.80
2010,02,21,09,41,6.80
2010,02,21,09,42,6.80
2010,02,21,09,43,6.90
2010,02,21,09,44,7.00
2010,02,21,09,45,7.10
2010,02,21,09,46,7.20
2010,02,21,09,47,7.30
2010,02,21,09,48,7.30
2010,02,21,09,49,7.40
2010,02,21,09,50,7.50
2010,02,21,09,51,7.60
2010,02,21,09,52,7.70
2010,02,21,09,53,7.80
2010,02,21,09,54,7.90
2010,02,21,09,55,7.90
2010,02,21,09,56,8.00
2010,02,21,09,57,8.10
2010,02,21,09,58,8.20
2010,02,21,09,59,8.20
2010,02,21,10,00,8.20
2010,02,21,10,01,8.20
2010,02,21,10,02,8.30
2010,02,21,10,03,8.30
2010,02,21,10,04,8.30
2010,02,21,10,05,8.30
2010,02,21,10,06,8.30
2010,02,21,10,07,8.30
2010,02,21,10,08,8.30
2010,02,21,10,09,8.40
2010,02,21,10,10,8.40
2010,02,21,10,11,8.50
2010,02,21,10,12,8.50
2010,02,21,10,13,8.60
2010,02,21,10,14,8.60
2010,02,21,10,15,8.70
2010,02,21,10,16,8.70
2010,02,21,10,17,8.70
2010,02,21,10,18,8.70
2010,02,21,10,19,8.70
2010,02,21,10,20,8.70
2010,02,21,10,21,8.70
2010,02,21,10,22,8.70
2010,02,21,10,23,8.70
2010,02,21,10,24,8.70
2010,02,21,10,25,8.70
2010,02,21,10,26,8.70
2010,02,21,10,27,8.80
2010,02,21,10,28,8.80
2010,02,21,10,29,8.80
2010,02,21,10,30,8.80
2010,02,21,10,31,8.80
2010,02,21,10,32,8.90
2010,02,21,10,33,8.90
2010,02,21,10,34,8.90
2010,02,21,10,35,8.90
2010,02,21,10,36,8.90
2010,02,21,10,37,8.90
2010,02,21,10,38,8.90
2010,02,21,10,39,8.90
2010,02,21,10,40,8.90
2010,02,21,10,41,9.00
2010,02,21,10,42,9.00
2010,02,21,10,43,9.10
2010,02,21,10,44,9.10
2010,02,21,10,45,9.10
2010,02,21,10,46,9.20
2010,02,21,10,47,9.20
2010,02,21,10,48,9.20
2010,02,21,10,49,9.20
2010,02,21,10,50,9.20
2010,02,21,10,51,9.10
2010,02,21,10,52,9.10
2010,02,21,10,53,9.00
2010,02,21,10,54,9.00
2010,02,21,10,55,9.00
2010,02,21,10,56,9.00
2010,02,21,10,57,9.10
2010,02,21,10,58,9.20
2010,02,21,10,59,9.20
2010,02,21,11,00,9.30
2010,02,21,11,01,9.40
2010,02,21,11,02,9.50
2010,02,21,11,03,9.50
2010,02,21,11,04,9.60
2010,02,21,11,05,9.70
2010,02,21,11,06,9.70
2010,02,21,11,07,9.80
2010,02,21,11,08,9.80
2010,02,21,11,09,9.70
2010,02,21,11,10,9.70
2010,02,21,11,11,9.50
2010,02,21,11,12,9.50
2010,02,21,11,13,9.50
2010,02,21,11,14,9.50
2010,02,21,11,15,9.50
2010,02,21,11,16,9.50
2010,02,21,11,17,9.50
2010,02,21,11,18,9.50
2010,02,21,11,19,9.60
2010,02,21,11,20,9.60
2010,02,21,11,21,9.60
2010,02,21,11,22,9.70
2010,02,21,11,23,9.70
2010,02,21,11,24,9.70
2010,02,21,11,25,9.70
2010,02,21,11,26,9.70
2010,02,21,11,27,9.80
2010,02,21,11,28,9.80
2010,02,21,11,29,9.80
2010,02,21,11,30,9.80
2010,02,21,11,31,9.80
2010,02,21,11,32,9.80
2010,02,21,11,33,9.80
2010,02,21,11,34,9.80
2010,02,21,11,35,9.80
2010,02,21,11,36,9.80
2010,02,21,11,37,9.80
2010,02,21,11,38,9.90
2010,02,21,11,39,9.90
2010,02,21,11,40,9.90
2010,02,21,11,41,9.90
2010,02,21,11,42,9.90
2010,02,21,11,43,9.90
2010,02,21,11,44,10.00
2010,02,21,11,45,10.10
2010,02,21,11,46,10.10
2010,02,21,11,47,10.10
2010,02,21,11,48,10.10
2010,02,21,11,49,10.10
2010,02,21,11,50,10.10
2010,02,21,11,51,10.10
2010,02,21,11,52,10.10
2010,02,21,11,53,10.20
2010,02,21,11,54,10.20
2010,02,21,11,55,10.30
2010,02,21,11,56,10.40
2010,02,21,11,57,10.40
2010,02,21,11,58,10.40
2010,02,21,11,59,10.30
2010,02,21,12,00,10.30
2010,02,21,12,01,10.40
2010,02,21,12,02,10.40
2010,02,21,12,03,10.60
2010,02,21,12,04,10.60
2010,02,21,12,05,10.60
2010,02,21,12,06,10.60
2010,02,21,12,07,10.50
2010,02,21,12,08,10.50
2010,02,21,12,09,10.60
2010,02,21,12,10,10.60
2010,02,21,12,11,10.60
2010,02,21,12,12,10.70
2010,02,21,12,13,10.70
2010,02,21,12,14,10.60
2010,02,21,12,15,10.70
2010,02,21,12,16,10.70
2010,02,21,12,17,10.80
2010,02,21,12,18,10.80
2010,02,21,12,19,10.90
2010,02,21,12,20,10.90
2010,02,21,12,21,10.90
2010,02,21,12,22,10.90
2010,02,21,12,23,10.90
2010,02,21,12,24,10.90
2010,02,21,12,25,10.90
2010,02,21,12,26,10.90
2010,02,21,12,27,10.80
2010,02,21,12,28,10.80
2010,02,21,12,29,10.70
2010,02,21,12,30,10.70
2010,02,21,12,31,10.70
2010,02,21,12,32,10.70
2010,02,21,12,33,10.80
2010,02,21,12,34,10.80
2010,02,21,12,35,10.90
2010,02,21,12,36,11.00
2010,02,21,12,37,11.10
2010,02,21,12,38,11.20
2010,02,21,12,39,11.30
2010,02,21,12,40,11.40
2010,02,21,12,41,11.60
2010,02,21,12,42,11.60
2010,02,21,12,43,11.50
2010,02,21,12,44,11.30
2010,02,21,12,45,11.20
2010,02,21,12,46,11.00
2010,02,21,12,47,10.90
2010,02,21,12,48,10.90
2010,02,21,12,49,10.90
2010,02,21,12,50,10.90
2010,02,21,12,51,10.90
2010,02,21,12,52,10.90
2010,02,21,12,53,10.90
2010,02,21,12,54,11.00
2010,02,21,12,55,11.10
2010,02,21,12,56,11.20
2010,02,21,12,57,11.30
2010,02,21,12,58,11.30
2010,02,21,12,59,11.40
2010,02,21,13,00,11.40
2010,02,21,13,01,11.40
2010,02,21,13,02,11.40
2010,02,21,13,03,11.40
2010,02,21,13,04,11.40
2010,02,21,13,05,11.40
2010,02,21,13,06,11.40
2010,02,21,13,07,11.40
2010,02,21,13,08,11.50
2010,02,21,13,09,11.60
2010,02,21,13,10,11.70
2010,02,21,13,11,11.80
2010,02,21,13,12,11.80
2010,02,21,13,13,11.90
2010,02,21,13,14,11.80
2010,02,21,13,15,11.80
2010,02,21,13,16,11.70
2010,02,21,13,17,11.50
2010,02,21,13,18,11.40
2010,02,21,13,19,11.40
2010,02,21,13,20,11.30
2010,02,21,13,21,11.30
2010,02,21,13,22,11.30
2010,02,21,13,23,11.30
2010,02,21,13,24,11.30
2010,02,21,13,25,11.40
2010,02,21,13,26,11.40
2010,02,21,13,27,11.40
2010,02,21,13,28,11.40
2010,02,21,13,29,11.40
2010,02,21,13,30,11.50
2010,02,21,13,31,11.60
2010,02,21,13,32,11.50
2010,02,21,13,33,11.40
2010,02,21,13,34,11.40
2010,02,21,13,35,11.40
2010,02,21,13,36,11.40
2010,02,21,13,37,11.40
2010,02,21,13,38,11.40
2010,02,21,13,39,11.40
2010,02,21,13,40,11.60
2010,02,21,13,41,11.70
2010,02,21,13,42,11.80
2010,02,21,13,43,11.90
2010,02,21,13,44,12.00
2010,02,21,13,45,12.10
2010,02,21,13,46,12.20
2010,02,21,13,47,12.30
2010,02,21,13,48,12.30
2010,02,21,13,49,12.30
2010,02,21,13,50,12.20
2010,02,21,13,51,12.10
2010,02,21,13,52,12.00
2010,02,21,13,53,11.80
2010,02,21,13,54,11.80
2010,02,21,13,55,11.70
2010,02,21,13,56,11.60
2010,02,21,13,57,11.60
2010,02,21,13,58,11.40
2010,02,21,13,59,11.30
2010,02,21,14,00,11.20
2010,02,21,14,01,11.20
2010,02,21,14,02,11.10
2010,02,21,14,03,11.10
2010,02,21,14,04,11.20
2010,02,21,14,05,11.30
2010,02,21,14,06,11.40
2010,02,21,14,07,11.40
2010,02,21,14,08,11.50
2010,02,21,14,09,11.60
2010,02,21,14,10,11.60
2010,02,21,14,11,11.70
2010,02,21,14,12,11.70
2010,02,21,14,13,11.70
2010,02,21,14,14,11.70
2010,02,21,14,15,11.60
2010,02,21,14,16,11.60
2010,02,21,14,17,11.60
2010,02,21,14,18,11.40
2010,02,21,14,19,11.20
2010,02,21,14,20,11.20
2010,02,21,14,21,11.20
2010,02,21,14,22,11.20
2010,02,21,14,23,11.20
2010,02,21,14,24,11.20
2010,02,21,14,25,11.20
2010,02,21,14,26,11.20
2010,02,21,14,27,11.30
2010,02,21,14,28,11.30
2010,02,21,14,29,11.40
2010,02,21,14,30,11.40
2010,02,21,14,31,11.40
2010,02,21,14,32,11.40
2010,02,21,14,33,11.40
2010,02,21,14,34,11.40
2010,02,21,14,35,11.40
2010,02,21,14,36,11.50
2010,02,21,14,37,11.60
2010,02,21,14,38,11.60
2010,02,21,14,39,11.60
2010,02,21,14,40,11.60
2010,02,21,14,41,11.60
2010,02,21,14,42,11.60
2010,02,21,14,43,11.60
2010,02,21,14,44,11.60
2010,02,21,14,45,11.60
2010,02,21,14,46,11.70
2010,02,21,14,47,11.60
2010,02,21,14,48,11.60
2010,02,21,14,49,11.60
2010,02,21,14,50,11.60
2010,02,21,14,51,11.60
2010,02,21,14,52,11.40
2010,02,21,14,53,11.40
2010,02,21,14,54,11.40
2010,02,21,14,55,11.40
2010,02,21,14,56,11.40
2010,02,21,14,57,11.30
2010,02,21,14,58,11.20
2010,02,21,14,59,11.20
2010,02,21,15,00,11.20
2010,02,21,15,01,11.10
2010,02,21,15,02,11.10
2010,02,21,15,03,11.20
2010,02,21,15,04,11.20
2010,02,21,15,05,11.20
2010,02,21,15,06,11.20
2010,02,21,15,07,11.10
2010,02,21,15,08,11.10
2010,02,21,15,09,11.10
2010,02,21,15,10,11.10
2010,02,21,15,11,11.00
2010,02,21,15,12,11.10
2010,02,21,15,13,11.10
2010,02,21,15,14,11.00
2010,02,21,15,15,10.90
2010,02,21,15,16,10.90
2010,02,21,15,17,10.80
2010,02,21,15,18,10.80
2010,02,21,15,19,10.70
2010,02,21,15,20,10.70
2010,02,21,15,21,10.60
2010,02,21,15,22,10.60
2010,02,21,15,23,10.60
2010,02,21,15,24,10.60
2010,02,21,15,25,10.60
2010,02,21,15,26,10.60
2010,02,21,15,27,10.60
2010,02,21,15,28,10.60
2010,02,21,15,29,10.50
2010,02,21,15,30,10.40
2010,02,21,15,31,10.40
2010,02,21,15,32,10.40
2010,02,21,15,33,10.30
2010,02,21,15,34,10.30
2010,02,21,15,35,10.30
2010,02,21,15,36,10.30
2010,02,21,15,37,10.30
2010,02,21,15,38,10.20
2010,02,21,15,39,10.30
2010,02,21,15,40,10.30
2010,02,21,15,41,10.30
2010,02,21,15,42,10.40
2010,02,21,15,43,10.40
2010,02,21,15,44,10.40
2010,02,21,15,45,10.30
2010,02,21,15,46,10.30
2010,02,21,15,47,10.10
2010,02,21,15,48,10.00
2010,02,21,15,49,9.90
2010,02,21,15,50,9.80
2010,02,21,15,51,9.80
2010,02,21,15,52,9.90
2010,02,21,15,53,9.90
2010,02,21,15,54,9.90
2010,02,21,15,55,9.90
2010,02,21,15,56,9.90
2010,02,21,15,57,9.90
2010,02,21,15,58,9.90
2010,02,21,15,59,9.90
2010,02,21,16,00,9.90
2010,02,21,16,01,9.90
2010,02,21,16,02,9.90
2010,02,21,16,03,9.90
2010,02,21,16,04,10.00
2010,02,21,16,05,10.10
2010,02,21,16,06,10.00
2010,02,21,16,07,9.90
2010,02,21,16,08,9.90
2010,02,21,16,09,9.90
2010,02,21,16,10,9.80
2010,02,21,16,11,9.80
2010,02,21,16,12,9.70
2010,02,21,16,13,9.70
2010,02,21,16,14,9.70
2010,02,21,16,15,9.60
2010,02,21,16,16,9.50
2010,02,21,16,17,9.40
2010,02,21,16,18,9.30
2010,02,21,16,19,9.30
2010,02,21,16,20,9.20
2010,02,21,16,21,9.30
2010,02,21,16,22,9.30
2010,02,21,16,23,9.30
2010,02,21,16,24,9.30
2010,02,21,16,25,9.30
2010,02,21,16,26,9.20
2010,02,21,16,27,9.20
2010,02,21,16,28,9.20
2010,02,21,16,29,9.30
2010,02,21,16,30,9.40
2010,02,21,16,31,9.40
2010,02,21,16,32,9.40
2010,02,21,16,33,9.40
2010,02,21,16,34,9.30
2010,02,21,16,35,9.30
2010,02,21,16,36,9.30
2010,02,21,16,37,9.30
2010,02,21,16,38,9.30
2010,02,21,16,39,9.20
2010,02,21,16,40,9.20
2010,02,21,16,41,9.10
2010,02,21,16,42,9.10
2010,02,21,16,43,9.20
2010,02,21,16,44,9.20
2010,02,21,16,45,9.20
2010,02,21,16,46,9.20
2010,02,21,16,47,9.20
2010,02,21,16,48,9.20
2010,02,21,16,49,9.20
2010,02,21,16,50,9.20
2010,02,21,16,51,9.20
2010,02,21,16,52,9.30
2010,02,21,16,53,9.30
2010,02,21,16,54,9.20
2010,02,21,16,55,9.20
2010,02,21,16,56,9.10
2010,02,21,16,57,9.10
2010,02,21,16,58,9.00
2010,02,21,16,59,9.00
2010,02,21,17,00,9.00
2010,02,21,17,01,9.00
2010,02,21,17,02,9.10
2010,02,21,17,03,9.10
2010,02,21,17,04,9.10
2010,02,21,17,05,9.10
2010,02,21,17,06,9.10
2010,02,21,17,07,9.10
2010,02,21,17,08,9.20
2010,02,21,17,09,9.20
2010,02,21,17,10,9.20
2010,02,21,17,11,9.20
2010,02,21,17,12,9.20
2010,02,21,17,13,9.20
2010,02,21,17,14,9.10
2010,02,21,17,15,9.10
2010,02,21,17,16,9.00
2010,02,21,17,17,9.00
2010,02,21,17,18,9.00
2010,02,21,17,19,8.90
2010,02,21,17,20,8.80
2010,02,21,17,21,8.80
2010,02,21,17,22,8.70
2010,02,21,17,23,8.70
2010,02,21,17,24,8.70
2010,02,21,17,25,8.70
2010,02,21,17,26,8.70
2010,02,21,17,27,8.70
2010,02,21,17,28,8.70
2010,02,21,17,29,8.60
2010,02,21,17,30,8.60
2010,02,21,17,31,8.60
2010,02,21,17,32,8.60
2010,02,21,17,33,8.60
2010,02,21,17,34,8.50
2010,02,21,17,35,8.50
2010,02,21,17,36,8.50
2010,02,21,17,37,8.50
2010,02,21,17,38,8.50
2010,02,21,17,39,8.50
2010,02,21,17,40,8.50
2010,02,21,17,41,8.50
2010,02,21,17,42,8.50
2010,02,21,17,43,8.50
2010,02,21,17,44,8.50
2010,02,21,17,45,8.40
2010,02,21,17,46,8.40
2010,02,21,17,47,8.40
2010,02,21,17,48,8.30